Regional Weather Roundup
Issued by NWS

Home | Current Version | Previous Version | Text Only | Print | Product List | Glossary On
Versions: 1 2 3 4 5 6 7 8 9 10 11 12 13 14 15 16 17 18 19 20 21 22 23 24 25 26 27
000
ASUS44 KLIX 250906
RWRLA
LOUISIANA WEATHER ROUNDUP
NATIONAL WEATHER SERVICE NEW ORLEANS LA
400 AM CDT FRI MAY 25 2018

NOTE: "FAIR" INDICATES FEW OR NO CLOUDS BELOW 12,000 FEET WITH NO
      SIGNIFICANT WEATHER AND/OR OBSTRUCTIONS TO VISIBILITY.
      SKY/WX - SKY CONDITION AND SIGNIFICANT WEATHER.
      TMP - AIR TEMPERATURE.    DP   - DEWPOINT TEMPERATURE.
      RH  - RELATIVE HUMIDITY.  PRES - PRESSURE.
      HX  - HEAT INDEX.         WCI  - WIND CHILL INDEX.

*  THESE STATIONS ARE NOT NWS OR FAA STATIONS AND ARE NOT UNDER
   NWS QUALITY CONTROL.

LAZ040-048-061>063-065-066-069-251000-
SOUTHEAST LOUISIANA

CITY           SKY/WX    TMP DP  RH WIND       PRES   REMARKS
N.O. INTL ARPT MOCLDY    74  74 100 CALM      29.99S
N.O. LAKEFRONT FAIR      78  72  81 E3        29.99S
N.O. DOWNTOWN* PTSUNNY   78  72  81 CALM      30.00S
RESERVE*         N/A     74  71  90 CALM      29.99S
SLIDELL        FAIR      70  67  90 CALM      29.99S
BATON ROUGE    FAIR      71  69  93 CALM      29.99F
BOOTHVILLE     FAIR      80  75  84 S5        29.99F
BELLE CHASSE   CLOUDY    76  73  91 S9        29.99R
BOGALUSA*      FAIR      69  66  89 CALM      30.01S
GALLIANO*      LGT RAIN  73  69  87 CALM      29.98F
NEW ROADS*     FAIR      71  65  82 CALM      29.99F
GONZALES*      FAIR      69  69 100 CALM      29.98S
HAMMOND*       FAIR      70  68  94 CALM      30.00R
HOUMA*         FAIR      70  70  99 CALM      29.99S FOG
PORT FOURCHON* PTSUNNY   81  73  78 S3        29.99S

$$

LAZ041-044-053-054-251000-
SOUTHWEST LOUISIANA

CITY           SKY/WX    TMP DP  RH WIND       PRES   REMARKS
LAKE CHARLES   FAIR      73  71  93 CALM        N/A
LAFAYETTE      FAIR      72  71  97 CALM      29.99F
PATTERSON      FAIR      72  71  97 CALM      30.00S
SALT POINT       N/A    N/A N/A N/A E3        29.97F
NEW IBERIA     FAIR      72  69  90 CALM      29.99F
CHENAULT AIRPK FAIR      72  71  97 CALM      29.98F

$$

LAZ027-028-251000-
CENTRAL LOUISIANA

CITY           SKY/WX    TMP DP  RH WIND       PRES   REMARKS
FORT POLK      NOT AVBL
ALEXANDRIA INT FAIR      72  70  93 CALM      29.97F
ALEXANDRIA     FOG       70  70 100 CALM      29.98F VSB 1

$$

LAZ001-002-251000-
NORTHWEST LOUISIANA

CITY           SKY/WX    TMP DP  RH WIND       PRES   REMARKS
SHREVEPORT     FAIR      73  69  87 SW6       29.96F
BARKSDALE AFB  FAIR      70  70 100 S5        29.96F
DTN SHREVEPORT FAIR      76  68  76 SW5       29.97F

$$

LAZ014-016-251000-
NORTHEAST LOUISIANA

CITY           SKY/WX    TMP DP  RH WIND       PRES   REMARKS
MONROE         FAIR      73  72  96 CALM      29.98F
TALLULAH       FAIR      69  69 100 CALM      29.98S

$$





USA.gov is the U.S. government's official web portal to all federal, state and local government web resources and services.